{"data":{"norad_id":67118,"intl_designator":"2025-299S","name":"STARLINK-35701","alt_names":[],"object_type":"PAYLOAD","status":"ACTIVE","operator":null,"country":"US","launch_date":"2025-12-15","launch_site_code":"AFETR","launch_vehicle":null,"mission":null,"orbit_class":"UNKNOWN","rcs_meters":null,"size_class":null,"mass_kg":null,"dimensions":null,"purposes":["comms"],"wikipedia_slug":null,"has_3d_model":false,"image_url":null,"decayed_at":null,"tle_current":{"epoch":"2026-05-25T03:48:23.459040Z","epoch_age_seconds":68264,"freshness":"FRESH","line1":"1 67118U 25299S   26145.15860485  .00017576  00000+0  64643-3 0  9996","line2":"2 67118  42.9964  96.9149 0001861 276.0937  83.9702 15.27592777 24813","mean_motion":15.27592777,"eccentricity":0.0001861,"inclination_deg":42.9964,"raan_deg":96.9149,"arg_perigee_deg":276.0937,"mean_anomaly_deg":83.9702,"bstar":0.00064643,"rev_number":2481,"period_min":94.265960253359,"perigee_km":481.73397775929,"apogee_km":484.28769698436,"semimajor_km":6861.1478373718,"source":"CELESTRAK","updated_at":"2026-05-25T13:38:21.476183Z"}}}